This is the latest recevied weather packets stored in our database for station/object K9ABJ. If no packets are shown the sender has not sent any weather packets the latest 10 day(s).
| Time | Temp. | Humidity | Pressure | Rain* | Wind** | Luminosity | Snow |
|---|---|---|---|---|---|---|---|
| 1787775996 | 26.11° C | 76% | 1012.1 hPa | 0 mm | - | 103 W/m² | - |
| 1787775692 | 26.67° C | 74% | 1012.1 hPa | 0 mm | - | 116 W/m² | - |
| 1787775390 | 26.67° C | 74% | 1012.1 hPa | 0 mm | - | 131 W/m² | - |
| 1787775085 | 26.67° C | 74% | 1012.3 hPa | 0 mm | - | 146 W/m² | - |
| 1787774785 | 27.22° C | 72% | 1012.3 hPa | 0 mm | - | 161 W/m² | - |
| 1787774484 | 28.33° C | 70% | 1012.6 hPa | 0 mm | - | 250 W/m² | - |
| 1787774184 | 28.33° C | 70% | 1012.7 hPa | 0 mm | - | 838 W/m² | - |
| 1787773882 | 27.78° C | 70% | 1012.9 hPa | 0 mm | - | 804 W/m² | - |
| 1787773581 | 28.33° C | 69% | 1013 hPa | 0 mm | - | 772 W/m² | - |
| 1787773278 | 27.78° C | 70% | 1012.8 hPa | 0 mm | - | 531 W/m² | - |
| 1787772978 | 27.78° C | 69% | 1012.9 hPa | 0 mm | - | 520 W/m² | - |
| 1787772674 | 28.33° C | 69% | 1013.1 hPa | 0 mm | - | 1364 W/m² | - |
| 1787772371 | 27.78° C | 70% | 1013 hPa | 0 mm | - | 1552 W/m² | - |
| 1787772066 | 27.78° C | 69% | 1013.2 hPa | 0 mm | - | 1731 W/m² | - |
| 1787771766 | 27.22° C | 70% | 1013.1 hPa | 0 mm | - | 1318 W/m² | - |
| 1787771465 | 27.78° C | 71% | 1013.2 hPa | 0 mm | - | 345 W/m² | - |
| 1787771163 | 28.33° C | 69% | 1013.5 hPa | 0 mm | - | 480 W/m² | - |
| 1787770860 | 27.78° C | 70% | 1013.3 hPa | 0 mm | - | 595 W/m² | - |
| 1787770558 | 27.22° C | 70% | 1013.8 hPa | 0 mm | - | 623 W/m² | - |
| 1787770258 | 27.78° C | 71% | 1013.5 hPa | 0 mm | - | 719 W/m² | - |
| 1787769956 | 27.22° C | 70% | 1013.7 hPa | 0 mm | - | 669 W/m² | - |
| 1787769652 | 27.22° C | 70% | 1013.6 hPa | 0 mm | - | 595 W/m² | - |
| 1787769350 | 26.67° C | 72% | 1013.8 hPa | 0 mm | - | 580 W/m² | - |
| 1787769045 | 27.22° C | 70% | 1013.6 hPa | 0 mm | - | 281 W/m² | - |
| 1787768740 | 27.22° C | 69% | 1013.7 hPa | 0 mm | - | 565 W/m² | - |
* Rain latest hour (hover to see other rain measurements)
** Current wind speed in m/s (hover to see current wind gust speed)